Starlink 31381

operational
NORAD ID: 59469 Int'l Des: 2024-068 Owner: SPXS Country: US Constellation: starlink
LEOCIRCULAR

关于 Starlink 31381

正在加载描述...

实时位置

正在加载3D地球...

即将过境

高度历史

Altitude vs Time

uPlot chart will show altitude changes over time

两行轨道根数

1 59469U 24068Q 25353.67028039 .00004409 00000-0 16966-3 0 9994
2 59469 43.0014 123.0654 0001276 280.2032 79.8676 15.27576834 96322
Epoch: Dec 19, 2025 • Age: 12 hours

当前状态

高度 492.9 km
速度 7.62 km/s
星下点 -36.61°S, 86.88°W
发射日期 Apr 10, 2024
运行时间 1.6 years
类型 internet

技术详情

分类 Payload
质量 730.00 kg
干质量 700.00 kg
总质量 730.00 kg
长度 0.30 m
直径 4.10 m
跨度 29.00 m
形状 Box + pan
制造商 SPXS
平台类型 Starlink V2M
阶段状态 In Orbit
所有者/国家 SPXS/US

大型星座

Loading constellations...